GW4332 Weather Reports


time (UTC)temp
F
wind
direction
speed
knots
gust
knots
rain 1hr
in
rain 24hr
in
rain mn
in
humidity
%
barometer
mb
20260906052030 54 98 1.7 5.2 0.00 0.00 0.00 87 1025.8
20260906051030 54 101 2.6 5.2 0.00 0.00 0.00 87 1025.7
20260906050030 54 132 1.7 3.5 0.00 0.00 0.00 87 1025.7
20260906045030 54 107 2.6 5.2 0.00 0.00 0.00 87 1025.7
20260906044029 54 94 2.6 6.1 0.00 0.00 0.00 86 1025.7
20260906043030 55 94 2.6 6.1 0.00 0.00 0.00 87 1025.7
20260906042030 55 106 1.7 3.5 0.00 0.00 0.00 87 1025.7
20260906041030 55 120 1.7 3.5 0.00 0.00 0.00 86 1025.8
20260906040030 55 141 0.9 3.5 0.00 0.00 0.00 86 1025.8
20260906035029 55 123 1.7 3.5 0.00 0.00 0.00 86 1025.7
20260906034030 56 127 0.9 2.6 0.00 0.00 0.00 86 1025.8
20260906033030 56 126 0.9 2.6 0.00 0.00 0.00 86 1025.9
20260906032029 56 160 0.9 2.6 0.00 0.00 0.00 85 1026.0
20260906031030 56 191 1.7 3.5 0.00 0.00 0.00 85 1026.1
20260906030030 56 182 1.7 6.1 0.00 0.00 0.00 85 1026.3
20260906025030 56 173 0.9 3.5 0.00 0.00 0.00 85 1026.3
20260906024030 57 177 2.6 6.1 0.00 0.00 0.00 84 1026.3
20260906023030 57 181 3.5 7.8 0.00 0.00 0.00 84 1026.4
20260906022030 57 187 3.5 6.1 0.00 0.00 0.00 84 1026.4
20260906021029 57 189 3.5 5.2 0.00 0.00 0.00 84 1026.5
20260906020030 57 190 4.3 7.0 0.00 0.00 0.00 83 1026.4
20260906015030 57 202 4.3 7.0 0.00 0.00 0.00 83 1026.3
20260906014029 57 194 4.3 7.8 0.00 0.00 0.00 82 1026.3
20260906013030 57 194 3.5 7.8 0.00 0.00 0.00 82 1026.2
20260906012030 57 168 0.9 4.3 0.00 0.00 0.00 81 1026.2
20260906011029 57 179 1.7 5.2 0.00 0.00 0.00 81 1026.1
20260906010030 57 115 1.7 3.5 0.00 0.00 0.00 81 1026.1
20260906005029 57 117 0.9 2.6 0.00 0.00 0.00 81 1026.0
20260906004030 58 146 0.9 2.6 0.00 0.00 0.00 81 1026.0
20260906003030 58 181 2.6 5.2 0.00 0.00 0.00 80 1026.0
20260906002030 58 187 3.5 6.1 0.00 0.00 0.00 80 1026.3
20260906001030 58 186 4.3 7.8 0.00 0.00 0.00 79 1026.3
20260906000030 58 183 2.6 6.1 0.00 0.00 0.00 78 1026.2
20260905235030 59 187 3.5 6.1 0.00 0.00 0.00 78 1026.3
20260905234030 60 175 1.7 5.2 0.00 0.00 0.00 76 1026.2
20260905233030 60 164 1.7 6.1 0.00 0.00 0.00 77 1026.1
20260905232030 60 203 3.5 6.1 0.00 0.00 0.00 76 1026.2
20260905231030 61 210 3.5 7.0 0.00 0.00 0.00 75 1026.2
20260905230029 62 257 7.0 8.7 0.00 0.00 0.00 75 1026.0
20260905225030 62 257 8.7 11.3 0.00 0.00 0.00 74 1026.0
20260905224030 62 273 9.6 11.3 0.00 0.00 0.00 73 1025.9
20260905223030 62 279 8.7 12.2 0.00 0.00 0.00 73 1026.0
20260905222030 62 274 9.6 11.3 0.00 0.00 0.00 73 1025.9
20260905221030 62 265 9.6 12.2 0.00 0.00 0.00 73 1025.8
20260905220030 62 283 8.7 12.2 0.00 0.00 0.00 73 1025.8
20260905215030 62 282 8.7 11.3 0.00 0.00 0.00 72 1025.6
20260905214030 62 283 8.7 11.3 0.00 0.00 0.00 72 1025.8
20260905213030 62 293 8.7 10.4 0.00 0.00 0.00 72 1025.5
20260905212030 62 287 8.7 10.4 0.00 0.00 0.00 72 1025.5
20260905211030 62 300 8.7 10.4 0.00 0.00 0.00 71 1025.5
20260905210030 62 299 8.7 11.3 0.00 0.00 0.00 71 1025.4
20260905205029 62 309 8.7 12.2 0.00 0.00 0.00 72 1025.2
20260905204030 62 297 8.7 12.2 0.00 0.00 0.00 71 1025.4
20260905203029 62 313 10.4 13.0 0.00 0.00 0.00 71 1025.1
20260905202030 62 315 9.6 12.2 0.00 0.00 0.00 71 1025.3
20260905201030 62 304 10.4 13.0 0.00 0.00 0.00 70 1025.2
20260905200029 62 306 11.3 14.8 0.00 0.00 0.00 72 1025.2
20260905195030 62 307 11.3 13.9 0.00 0.00 0.00 71 1025.3
20260905194030 62 300 13.0 15.6 0.00 0.00 0.00 71 1025.2
20260905193030 63 294 13.0 16.5 0.00 0.00 0.00 71 1025.1
20260905192030 63 298 13.9 17.4 0.00 0.00 0.00 72 1024.9
20260905191030 63 296 13.9 18.2 0.00 0.00 0.00 72 1024.8
20260905190030 63 290 15.6 19.1 0.00 0.00 0.00 69 1024.7
20260905185030 63 291 15.6 22.6 0.00 0.00 0.00 69 1024.5
20260905184030 63 297 15.6 23.5 0.00 0.00 0.00 69 1024.3
20260905183030 63 282 17.4 24.3 0.00 0.00 0.00 67 1024.2
20260905182030 63 295 16.5 21.7 0.00 0.00 0.00 72 1024.2
20260905181029 63 298 16.5 20.0 0.00 0.00 0.00 72 1024.1
20260905180030 63 298 13.0 20.9 0.00 0.00 0.00 73 1023.8
20260905175030 63 302 13.9 17.4 0.00 0.00 0.00 74 1024.0
20260905174029 63 294 15.6 19.1 0.00 0.00 0.00 74 1024.0
20260905173031 63 289 16.5 20.0 0.00 0.00 0.00 75 1024.0
20260905172029 63 290 16.5 22.6 0.00 0.00 0.00 74 1023.8
20260905171030 63 292 15.6 19.1 0.00 0.00 0.00 75 1023.9
20260905170030 63 290 17.4 22.6 0.00 0.00 0.00 75 1023.8
20260905165029 63 295 16.5 22.6 0.00 0.00 0.00 73 1023.7
20260905164030 63 289 16.5 23.5 0.00 0.00 0.00 73 1023.6
20260905163030 64 283 17.4 22.6 0.00 0.00 0.00 72 1023.6
20260905162030 64 281 19.1 24.3 0.00 0.00 0.00 68 1023.4
20260905161030 64 272 19.1 25.2 0.00 0.00 0.00 68 1023.2
20260905160030 64 282 20.0 25.2 0.00 0.00 0.00 68 1023.0
20260905155029 64 287 20.0 26.9 0.00 0.00 0.00 67 1022.8
20260905154030 64 286 19.1 24.3 0.00 0.00 0.00 71 1022.9
20260905153030 64 292 19.1 24.3 0.00 0.00 0.00 71 1022.8
20260905152030 64 287 22.6 26.9 0.00 0.00 0.00 69 1022.5
20260905151030 64 277 22.6 27.8 0.00 0.00 0.00 70 1022.5
20260905150030 64 284 20.0 26.1 0.00 0.00 0.00 69 1022.3
20260905145030 64 287 17.4 22.6 0.00 0.00 0.00 72 1022.4
20260905144030 64 287 20.0 26.1 0.00 0.00 0.00 71 1022.2
20260905143030 64 286 19.1 24.3 0.00 0.00 0.00 70 1022.1
20260905142029 65 279 20.0 25.2 0.00 0.00 0.00 70 1022.1
20260905141030 65 276 22.6 27.8 0.00 0.00 0.00 68 1021.9
20260905140030 65 278 21.7 26.9 0.00 0.00 0.00 69 1021.8
20260905135029 65 274 22.6 30.4 0.00 0.00 0.00 69 1021.7
20260905134030 65 278 24.3 30.4 0.00 0.00 0.00 72 1021.6
20260905133030 65 266 20.9 27.8 0.00 0.00 0.00 71 1021.5
20260905132030 65 275 23.5 28.7 0.00 0.00 0.00 73 1021.4
20260905131030 65 274 23.5 28.7 0.00 0.00 0.00 72 1021.3
20260905130030 64 277 22.6 28.7 0.00 0.00 0.00 73 1021.3
20260905125030 64 280 23.5 27.8 0.00 0.00 0.00 72 1021.2
20260905124030 65 277 25.2 30.4 0.00 0.00 0.00 71 1021.1
20260905123030 64 262 24.3 30.4 0.00 0.00 0.00 73 1021.0
20260905122030 65 266 22.6 26.1 0.00 0.00 0.00 73 1021.0
20260905121030 64 264 23.5 30.4 0.00 0.00 0.00 72 1020.8
20260905120030 64 253 26.1 32.2 0.00 0.00 0.00 71 1020.6
20260905115030 64 271 24.3 30.4 0.00 0.00 0.00 70 1020.6
20260905114030 64 276 21.7 27.8 0.00 0.00 0.00 71 1020.6
20260905113030 64 288 19.1 25.2 0.00 0.00 0.00 73 1020.5
20260905112030 64 281 24.3 31.3 0.00 0.00 0.00 73 1020.2
20260905111030 64 270 26.1 30.4 0.00 0.00 0.00 73 1020.1
20260905110030 64 261 23.5 31.3 0.00 0.00 0.00 70 1019.8
20260905105030 64 261 24.3 28.7 0.00 0.00 0.00 74 1019.8
20260905104030 64 269 24.3 30.4 0.00 0.00 0.00 75 1019.6
20260905103030 63 255 23.5 29.5 0.00 0.00 0.00 79 1019.6
20260905102030 63 265 23.5 30.4 0.00 0.00 0.00 79 1019.3
20260905101030 63 277 24.3 29.5 0.00 0.00 0.00 82 1019.4
20260905100030 63 259 26.1 33.9 0.00 0.00 0.00 79 1019.2
20260905095030 64 252 27.8 33.9 0.00 0.00 0.00 77 1018.9
20260905094030 64 272 24.3 29.5 0.00 0.00 0.00 75 1018.9
20260905093030 64 273 25.2 30.4 0.00 0.00 0.00 73 1018.7
20260905092029 64 256 24.3 28.7 0.00 0.00 0.00 75 1018.8
20260905091030 63 265 26.1 32.2 0.00 0.00 0.00 73 1018.5
20260905090030 63 262 28.7 34.8 0.00 0.00 0.00 73 1018.3
20260905085030 64 258 28.7 34.8 0.00 0.00 0.00 78 1018.1
20260905084030 63 258 26.9 34.8 0.00 0.00 0.00 78 1017.8
20260905083030 63 259 26.1 33.9 0.00 0.00 0.00 78 1017.8
20260905082030 63 262 27.8 33.0 0.00 0.00 0.00 78 1017.4
20260905081030 63 267 27.8 34.8 0.00 0.00 0.00 79 1017.3
20260905080030 63 263 26.1 30.4 0.00 0.00 0.00 80 1017.1
20260905075030 63 260 26.1 32.2 0.00 0.00 0.00 79 1017.0
20260905074029 63 253 24.3 31.3 0.00 0.00 0.00 79 1016.8
20260905073030 63 255 22.6 28.7 0.00 0.00 0.00 80 1016.7
20260905072030 63 260 24.3 29.5 0.00 0.00 0.00 79 1016.5
20260905071030 63 257 25.2 31.3 0.00 0.00 0.00 80 1016.4
20260905070030 63 255 22.6 30.4 0.00 0.00 0.00 79 1016.4
20260905065030 63 244 19.1 26.1 0.00 0.00 0.00 81 1016.4
20260905064030 63 244 19.1 25.2 0.00 0.00 0.00 81 1016.4
20260905063029 63 257 19.1 25.2 0.00 0.00 0.00 81 1016.3
20260905062030 63 240 17.4 24.3 0.00 0.00 0.00 82 1016.3
20260905061030 63 221 16.5 20.9 0.00 0.00 0.00 82 1016.3
20260905060030 63 245 15.6 23.5 0.00 0.00 0.00 81 1016.2
20260905055030 63 238 18.2 22.6 0.00 0.00 0.00 81 1016.1
20260905054030 63 230 15.6 22.6 0.00 0.00 0.00 81 1016.1
20260905053030 63 229 16.5 21.7 0.00 0.00 0.00 80 1015.9